[[{"header":{"parameterUnit":"m.s-1","parameterCategory":1,"la1":30.2991,"la2":30.254,"lo1":-89.0895,"lo2":-89.0444,"dy":0.0017,"dx":0.0017,"nx":28,"ny":28,"refTime":"2024-04-15T03:00:00:Z","depth":0,"parameterNumber":2,"parameterNumberName":"U-component_of_WINDS"},"data":[0,0,0,0,0,0,0,0,0,0,0,0,0,0,0,0,0,0,0,0,0,0,0,0,0,0,0,0,0,0,0,0,0,0,0,0,0,0,0,0,0,0,0,0,0,0,0,0,0,0,0,0,0,0,0,0,0,0,-4.5665,-4.5666,0,-4.579,-4.5792,-4.5793,-4.5797,-4.5796,-4.5794,-4.5793,-4.5916,-4.592,-4.5925,0,0,0,0,0,0,0,0,0,0,0,0,0,-4.5426,-4.543,-4.5665,-4.5666,-4.5668,-4.579,-4.5792,-4.5793,-4.5797,-4.5796,-4.5794,-4.5792,-4.5914,-4.592,-4.5925,0,0,0,0,0,0,0,0,0,0,0,0,0,-4.5538,-4.5432,-4.5665,-4.5685,-4.5688,-4.579,-4.5792,-4.5794,-4.5798,-4.5796,-4.5793,-4.5791,-4.5912,-4.5919,-4.5926,-4.6014,0,0,-4.5948,-4.5951,0,0,0,0,0,0,0,0,-4.5532,-4.5547,-4.568,-4.5684,-4.5687,-4.5776,-4.5752,-4.5867,-4.5798,-4.5756,-4.5793,-4.579,-4.5871,-4.5881,-4.5909,-4.602,-4.6025,-4.5948,-4.5952,-4.5955,-4.5957,0,0,0,0,0,0,0,-4.5524,-4.5542,-4.5714,-4.5682,-4.5687,-4.5687,-4.57,-4.5774,-4.5824,-4.5759,-4.576,-4.5775,-4.5872,-4.5902,-4.5912,-4.6027,-4.5948,-4.5954,-4.5959,-4.5961,-4.6216,-4.6219,0,0,0,0,0,0,-4.5513,-4.5535,-4.571,-4.5718,-4.5603,-4.5693,-4.5708,-4.575,-4.5823,-4.5833,-4.5777,-4.5775,-4.5892,-4.5904,-4.5916,-4.6024,-4.5955,-4.5962,-4.5966,-4.6214,-4.6217,-4.622,0,0,0,0,0,0,-4.5508,-4.5528,-4.5705,-4.5627,-4.5649,-4.5699,-4.5746,-4.5753,-4.5784,-4.5837,-4.5845,-4.5799,-4.589,-4.5907,-4.599,-4.6028,-4.5965,-4.5971,-4.6211,-4.6215,-4.6218,-4.6239,0,0,0,0,0,0,-4.5501,-4.5527,-4.5561,-4.5628,-4.5654,-4.5778,-4.5749,-4.5757,-4.5796,-4.5795,-4.586,-4.5868,-4.589,-4.598,-4.5997,-4.6036,-4.5977,-4.6207,-4.6212,-4.6217,-4.6235,-4.6243,-4.625,0,0,0,0,0,-4.5492,-4.5561,-4.5563,-4.5584,-4.5698,-4.578,-4.5795,-4.582,-4.5799,-4.5834,-4.5868,-4.5866,-4.6022,-4.5988,-4.6008,-4.605,-4.6205,-4.6211,-4.6217,-4.6232,-4.6241,-4.625,0,0,0,0,0,0,-4.5495,-4.557,-4.5573,-4.5666,-4.5717,-4.5781,-4.5825,-4.5829,-4.5886,-4.5882,-4.5909,-4.5924,-4.6007,-4.6037,-4.5998,-4.6139,-4.6111,-4.6121,-4.6116,-4.6125,-4.6133,-4.6122,-4.5983,0,0,0,0,0,-4.5508,-4.5569,-4.5631,-4.5706,-4.5732,-4.5774,-4.5811,-4.5826,-4.5879,-4.5901,-4.5941,-4.5992,-4.6052,-4.6091,-4.6149,-4.6241,-4.6254,-4.6279,-4.6287,-4.6293,-4.63,-4.635,-4.6361,-4.6239,-4.6239,-4.6238,0,0,-4.5532,-4.558,-4.5617,-4.5708,-4.575,-4.5811,-4.5792,-4.5858,-4.5904,-4.591,-4.5991,-4.6023,-4.6082,-4.6169,-4.621,-4.6197,-4.6337,-4.63,-4.6304,-4.6308,-4.6357,-4.6368,-4.6378,-4.6243,-4.6242,-4.6241,0,0,-4.5607,-4.5651,-4.5718,-4.5761,-4.5825,-4.5853,-4.5869,-4.5934,-4.5955,-4.6038,-4.6044,-4.6098,-4.6202,-4.6243,-4.6278,-4.6371,-4.6371,-4.639,-4.6427,-4.6475,-4.6485,-4.6494,-4.6525,-4.6536,-4.6398,-4.6398,-4.6398,0,-4.5628,-4.5723,-4.5752,-4.5819,-4.5858,-4.5869,-4.5937,-4.5977,-4.6056,-4.6082,-4.6068,-4.6198,-4.6238,-4.6335,-4.6359,-4.6387,-4.6405,-4.6381,-4.6482,-4.6491,-4.6499,-4.6529,-4.6541,-4.6399,-4.6399,-4.6399,-4.6399,0,-4.5745,-4.5811,-4.5858,-4.5936,-4.5981,-4.6048,-4.6086,-4.6128,-4.614,-4.617,-4.6254,-4.6303,-4.6371,-4.6396,-4.6408,-4.6495,-4.6485,-4.6476,-4.6448,-4.6512,-4.6541,-4.6553,-4.6402,-4.6401,-4.6401,-4.64,0,0,-4.5823,-4.5918,-4.5935,-4.597,-4.6043,-4.6093,-4.6161,-4.623,-4.6265,-4.632,-4.6375,-4.6464,-4.6457,-4.6496,-4.6513,-4.6556,-4.6625,-4.6541,-4.6543,-4.6553,-4.6722,-4.6727,-4.674,-4.6627,-4.6629,-4.6631,-4.6717,0,-4.5904,-4.6026,-4.6055,-4.6158,-4.6219,-4.6231,-4.629,-4.634,-4.637,-4.6425,-4.6457,-4.6519,-4.6506,-4.6529,-4.6572,-4.6607,-4.6659,-4.6602,-4.6676,-4.6679,-4.6659,-4.6755,-4.676,-4.6838,-4.6728,-4.673,-4.6732,0,-4.6015,-4.6074,-4.6184,-4.6249,-4.6275,-4.6328,-4.6393,-4.6447,-4.6504,-4.6522,-4.6568,-4.6581,-4.665,-4.6621,-4.6717,-4.6677,-4.671,-4.6732,-4.6736,-4.6741,-4.6707,-4.6761,-4.6864,-4.6875,-4.675,-4.6749,-4.6747,0,-4.6058,-4.6165,-4.6245,-4.6275,-4.6353,-4.639,-4.6424,-4.6479,-4.6519,-4.6576,-4.6602,-4.6667,-4.6701,-4.675,-4.678,-4.6756,-4.6872,-4.6846,-4.6888,-4.6887,-4.6909,-4.6906,-4.7016,-4.6935,-4.6935,-4.6935,-4.6934,0,-4.6144,-4.621,-4.6265,-4.6313,-4.6388,-4.6421,-4.6493,-4.6527,-4.6577,-4.6631,-4.6647,-4.6697,-4.6735,-4.679,-4.6814,-4.6889,-4.6905,-4.692,-4.6925,-4.6917,-4.6915,-4.6937,-4.6931,-4.6938,-4.6937,-4.6936,-4.6936,0,-4.6203,-4.6243,-4.633,-4.6398,-4.6417,-4.6468,-4.6526,-4.6573,-4.6605,-4.6674,-4.6692,-4.674,-4.6807,-4.6842,-4.6925,-4.6941,-4.7024,-4.7027,-4.7004,-4.7006,-4.7045,-4.704,-4.717,-4.7188,-4.7097,-4.7098,-4.7099,0,-4.6254,-4.6305,-4.638,-4.6418,-4.6453,-4.6515,-4.6557,-4.6592,-4.6634,-4.6704,-4.6742,-4.681,-4.6865,-4.6971,-4.7012,-4.7076,-4.7079,-4.712,-4.7088,-4.7078,-4.7077,-4.7072,-4.7077,-4.7125,-4.7126,-4.7126,-4.7127,0,-4.6339,-4.6357,-4.6417,-4.6484,-4.6533,-4.6587,-4.6641,-4.6671,-4.6715,-4.6761,-4.683,-4.6874,-4.6959,-4.7025,-4.7093,-4.7126,-4.7133,-4.7137,-4.715,-4.7141,-4.7125,-4.7132,-4.7017,-4.7133,-4.7133,-4.7132,-4.7132,-4.7131,-4.6394,-4.6441,-4.65,-4.6566,-4.6611,-4.6661,-4.6709,-4.6747,-4.6806,-4.6879,-4.6896,-4.6968,-4.7025,-4.7116,-4.7152,-4.7208,-4.72,-4.7218,-4.7223,-4.7226,-4.7226,-4.7119,-4.7221,-4.7221,-4.722,-4.722,-4.722,0,-4.6479,-4.6519,-4.6579,-4.6654,-4.6706,-4.6712,-4.6772,-4.6814,-4.6878,-4.6931,-4.6986,-4.7065,-4.713,-4.7179,-4.7245,-4.728,-4.7285,-4.7296,-4.7292,-4.7299,-4.7231,-4.7213,-4.7291,-4.7291,-4.7291,-4.7291,-4.7291,-4.7291,-4.6529,-4.6607,-4.6632,-4.6732,-4.6771,-4.6843,-4.6877,-4.6922,-4.6965,-4.7053,-4.7108,-4.714,-4.7191,-4.7261,-4.732,-4.7333,-4.7355,-4.7365,-4.7378,-4.7312,-4.7304,-4.7297,-4.728,-4.7371,-4.7371,-4.7441,-4.7442,-4.7442]},{"header":{"parameterUnit":"m.s-1","parameterCategory":1,"la1":30.2991,"la2":30.254,"lo1":-89.0895,"lo2":-89.0444,"dy":0.0017,"dx":0.0017,"nx":28,"ny":28,"refTime":"2024-04-15T03:00:00:Z","depth":0,"parameterNumber":3,"parameterNumberName":"V-component_of_WINDS"},"data":[0,0,0,0,0,0,0,0,0,0,0,0,0,0,0,0,0,0,0,0,0,0,0,0,0,0,0,0,0,0,0,0,0,0,0,0,0,0,0,0,0,0,0,0,0,0,0,0,0,0,0,0,0,0,0,0,0,0,3.8949,3.895,0,3.8987,3.8987,3.8988,3.9022,3.9022,3.9022,3.9023,3.9058,3.9058,3.9059,0,0,0,0,0,0,0,0,0,0,0,0,0,3.8905,3.8906,3.8949,3.895,3.895,3.8987,3.8987,3.8988,3.9022,3.9022,3.9023,3.9023,3.9058,3.9058,3.9059,0,0,0,0,0,0,0,0,0,0,0,0,0,3.8931,3.8906,3.8949,3.8972,3.8974,3.8987,3.8987,3.8988,3.9021,3.9022,3.9023,3.9023,3.9057,3.9058,3.9059,3.9052,0,0,3.9062,3.9062,0,0,0,0,0,0,0,0,3.893,3.8933,3.8968,3.897,3.8973,3.9,3.8985,3.9009,3.9021,3.9003,3.9023,3.9024,3.9038,3.904,3.9046,3.9053,3.9055,3.9062,3.9062,3.9062,3.9063,0,0,0,0,0,0,0,3.8928,3.8932,3.8964,3.8968,3.8971,3.8979,3.8984,3.8989,3.9017,3.9005,3.9007,3.9012,3.9039,3.9045,3.9047,3.9055,3.9062,3.9062,3.9063,3.9063,3.9061,3.906,0,0,0,0,0,0,3.8923,3.893,3.8963,3.8965,3.8953,3.898,3.8985,3.8991,3.9017,3.9021,3.9011,3.9013,3.9043,3.9046,3.9048,3.9043,3.9062,3.9063,3.9064,3.9062,3.9061,3.906,0,0,0,0,0,0,3.8922,3.8926,3.8961,3.8948,3.8954,3.898,3.8986,3.8991,3.8997,3.9021,3.9026,3.9012,3.9044,3.9047,3.9051,3.9045,3.9064,3.9064,3.9062,3.9061,3.9061,3.9031,0,0,0,0,0,0,3.8921,3.8925,3.8923,3.8948,3.8954,3.8964,3.8986,3.8991,3.8999,3.9002,3.9024,3.9028,3.9045,3.905,3.9052,3.9046,3.9065,3.9063,3.9062,3.9061,3.9033,3.903,3.9027,0,0,0,0,0,3.8919,3.8912,3.8923,3.8926,3.8952,3.8964,3.8967,3.8988,3.8998,3.8996,3.9012,3.9027,3.9045,3.905,3.9053,3.9047,3.9063,3.9062,3.9061,3.9034,3.903,3.9027,0,0,0,0,0,0,3.8883,3.8915,3.8928,3.8929,3.8943,3.8969,3.8967,3.8982,3.8993,3.8996,3.902,3.9025,3.9026,3.9037,3.9042,3.9043,3.9056,3.9056,3.9035,3.9032,3.9029,3.9026,3.9066,0,0,0,0,0,3.8876,3.8883,3.8911,3.8909,3.8916,3.894,3.8946,3.8961,3.8977,3.8983,3.8999,3.9013,3.9022,3.9028,3.9037,3.9035,3.9041,3.9033,3.9029,3.9027,3.9026,3.9027,3.9024,3.9056,3.9056,3.9056,0,0,3.886,3.8878,3.8881,3.8902,3.8916,3.8923,3.8945,3.8951,3.8957,3.8983,3.8989,3.9002,3.9019,3.9021,3.9022,3.903,3.9018,3.9025,3.9023,3.9023,3.9026,3.9023,3.902,3.9055,3.9056,3.9056,0,0,3.8835,3.8849,3.885,3.8864,3.8884,3.8901,3.8901,3.8926,3.8936,3.8942,3.8963,3.897,3.8984,3.8996,3.9004,3.8987,3.9001,3.8989,3.8973,3.8974,3.8971,3.8969,3.8964,3.8962,3.8988,3.8988,3.8988,0,3.8812,3.8824,3.8848,3.8854,3.8864,3.889,3.8892,3.8903,3.8925,3.893,3.8939,3.896,3.8973,3.8979,3.8975,3.898,3.8982,3.8986,3.897,3.8968,3.8966,3.8962,3.8959,3.8986,3.8987,3.8987,3.8987,0,3.8796,3.8805,3.8803,3.8826,3.8835,3.8838,3.8863,3.8869,3.8884,3.8899,3.8906,3.8924,3.8938,3.8941,3.8954,3.8949,3.8953,3.8965,3.898,3.8961,3.8957,3.8956,3.8984,3.8985,3.8985,3.8986,0,0,3.8748,3.8786,3.8785,3.8797,3.8823,3.8829,3.8834,3.885,3.8856,3.887,3.8876,3.8889,3.8901,3.891,3.8926,3.8927,3.8913,3.8939,3.894,3.8934,3.891,3.8901,3.8899,3.8924,3.8923,3.8923,3.8909,0,3.8728,3.874,3.8763,3.8767,3.8776,3.8802,3.8807,3.8823,3.8839,3.8848,3.8865,3.8874,3.8889,3.8895,3.8897,3.8914,3.8909,3.8916,3.8929,3.8929,3.8924,3.8896,3.8886,3.8872,3.8907,3.8907,3.8907,0,3.8705,3.8721,3.8726,3.8754,3.8758,3.8762,3.878,3.8789,3.8808,3.8819,3.8831,3.8849,3.8856,3.8869,3.888,3.8884,3.8891,3.89,3.89,3.8902,3.8917,3.8898,3.8868,3.8866,3.8904,3.8905,3.8905,0,3.8671,3.8693,3.87,3.8709,3.8741,3.8743,3.8756,3.8776,3.8785,3.88,3.8807,3.8821,3.883,3.8841,3.8862,3.887,3.8871,3.8886,3.8881,3.888,3.8879,3.8879,3.885,3.8883,3.8883,3.8883,3.8883,0,3.8646,3.8649,3.8686,3.869,3.8694,3.8721,3.8724,3.8739,3.8758,3.8765,3.8789,3.8795,3.8823,3.8833,3.885,3.8857,3.886,3.8869,3.8874,3.8867,3.8866,3.8872,3.8874,3.8882,3.8882,3.8882,3.8883,0,3.8608,3.8633,3.8643,3.8673,3.868,3.8682,3.8708,3.8713,3.8731,3.8741,3.8744,3.8772,3.8785,3.8808,3.8826,3.8838,3.8842,3.8849,3.8836,3.8838,3.8832,3.8833,3.8806,3.8805,3.8837,3.8837,3.8837,0,3.8591,3.8594,3.8626,3.8633,3.8646,3.8658,3.8668,3.8694,3.8704,3.8727,3.873,3.8745,3.8759,3.8779,3.88,3.8815,3.8823,3.8813,3.8825,3.882,3.8824,3.8824,3.8825,3.881,3.8809,3.8809,3.8809,0,3.8558,3.8571,3.8585,3.8604,3.8615,3.8631,3.8647,3.8652,3.8683,3.8692,3.8707,3.8717,3.8738,3.8753,3.8772,3.8785,3.8802,3.8805,3.8805,3.8798,3.8791,3.8796,3.8828,3.8805,3.8805,3.8806,3.8806,3.8806,3.8531,3.8536,3.8559,3.8574,3.859,3.8606,3.8613,3.8633,3.8646,3.8666,3.8681,3.8695,3.8716,3.8743,3.8755,3.8766,3.8774,3.8773,3.8773,3.8773,3.8771,3.8789,3.877,3.877,3.877,3.877,3.877,0,3.85,3.8517,3.8531,3.8555,3.8567,3.8584,3.8604,3.8613,3.8625,3.8644,3.8658,3.8675,3.8691,3.8714,3.8731,3.8736,3.8744,3.8739,3.8739,3.8742,3.8762,3.8761,3.8733,3.8733,3.8733,3.8733,3.8733,3.8733,3.8486,3.8495,3.8511,3.8529,3.8546,3.8561,3.8571,3.8586,3.8602,3.8621,3.8635,3.865,3.8671,3.869,3.8705,3.8712,3.8717,3.871,3.8719,3.8737,3.8741,3.8744,3.8743,3.8711,3.8711,3.8698,3.8698,3.8698]}]]